User: anonymous   Login
Location: Borgo
(42.3939°N, 9.2791°E)
Time: 08:03:30
(UTC+00:00)
Language:

CZ-2D R/B - Orbit

View from above orbital plane
View from above orbital plane
View from above satellite
View from above satellite

Ground track
Ground track

The orbit data is extracted from the following two-line orbital elements,

1 28738U 05024B   21101.61889133  .00000501  00000-0  32466-4 0  9994
2 28738  97.3655 120.0078 0010527 227.5797 132.4544 15.12341589866469
Epoch (UTC): 11 April 2021 14:51:12
Eccentricity: 0.0010527
inclination: 97.3655°
perigee height: 522 km
apogee height: 536 km
right ascension of ascending node: 120.0078°
argument of perigee: 227.5797°
revolutions per day: 15.12341589
mean anomaly at epoch: 132.4544°
orbit number at epoch: 86646

The dashed part of the orbit path shows where the satellite is in the earth's shadow,  

DLR